Time,TemperatureF,DewpointF,PressureIn,WindDirection,WindDirectionDegrees,WindSpeedMPH,WindSpeedGustMPH,Humidity,HourlyPrecipIn,Conditions,Clouds,dailyrainin,SoftwareType,DateUTC
2013-06-14 00:05:00,69.2,61.0,30.10,ESE,103,1.0,1.0,76,0.00,,,0.00,weatherlink.com 1.10,2013-06-13 22:05:00,
2013-06-14 00:20:00,69.5,60.0,30.10,ESE,103,2.0,2.0,71,0.00,,,0.00,weatherlink.com 1.10,2013-06-13 22:20:00,
2013-06-14 00:35:00,69.1,59.0,30.10,East,82,1.0,2.0,71,0.00,,,0.00,weatherlink.com 1.10,2013-06-13 22:35:00,
2013-06-14 00:50:00,68.2,61.0,30.10,SW,236,0.0,1.0,78,0.00,,,0.00,weatherlink.com 1.10,2013-06-13 22:50:00,
2013-06-14 01:06:00,67.7,61.0,30.10,West,267,0.0,0.0,79,0.00,,,0.00,weatherlink.com 1.10,2013-06-13 23:06:00,
2013-06-14 01:21:00,67.3,61.0,30.10,South,174,1.0,2.0,80,0.00,,,0.00,weatherlink.com 1.10,2013-06-13 23:21:00,
2013-06-14 01:36:00,66.2,60.0,30.10,SSW,211,0.0,2.0,81,0.00,,,0.00,weatherlink.com 1.10,2013-06-13 23:36:00,
2013-06-14 01:51:00,65.8,60.0,30.10,SSW,211,0.0,0.0,81,0.00,,,0.00,weatherlink.com 1.10,2013-06-13 23:51:00,
2013-06-14 02:06:00,65.6,60.0,30.10,SSW,212,0.0,1.0,82,0.00,,,0.00,weatherlink.com 1.10,2013-06-14 00:06:00,
2013-06-14 02:21:00,66.1,60.0,30.10,West,262,0.0,1.0,80,0.00,,,0.00,weatherlink.com 1.10,2013-06-14 00:21:00,
2013-06-14 02:36:00,66.7,60.0,30.10,West,263,0.0,1.0,79,0.00,,,0.00,weatherlink.com 1.10,2013-06-14 00:36:00,
2013-06-14 02:51:00,65.3,60.0,30.10,WSW,250,0.0,0.0,82,0.00,,,0.00,weatherlink.com 1.10,2013-06-14 00:51:00,
2013-06-14 03:06:00,66.3,60.0,30.10,West,276,3.0,3.0,80,0.00,,,0.00,weatherlink.com 1.10,2013-06-14 01:06:00,
2013-06-14 03:21:00,67.1,59.0,30.10,WSW,250,1.0,4.0,75,0.00,,,0.00,weatherlink.com 1.10,2013-06-14 01:21:00,
2013-06-14 03:36:00,65.8,58.0,30.10,SW,214,3.0,4.0,76,0.00,,,0.00,weatherlink.com 1.10,2013-06-14 01:36:00,
2013-06-14 03:51:00,65.5,57.0,30.10,SSW,197,4.0,8.0,73,0.00,,,0.00,weatherlink.com 1.10,2013-06-14 01:51:00,
2013-06-14 04:06:00,66.5,56.0,30.10,West,260,2.0,5.0,69,0.00,,,0.00,weatherlink.com 1.10,2013-06-14 02:06:00,
2013-06-14 04:21:00,67.0,58.0,30.10,West,262,4.0,6.0,74,0.00,,,0.00,weatherlink.com 1.10,2013-06-14 02:21:00,
2013-06-14 04:36:00,66.5,60.0,30.10,WSW,245,4.0,4.0,80,0.00,,,0.00,weatherlink.com 1.10,2013-06-14 02:36:00,
2013-06-14 04:51:00,66.5,62.0,30.10,SW,221,1.0,5.0,84,0.00,,,0.00,weatherlink.com 1.10,2013-06-14 02:51:00,
2013-06-14 05:06:00,66.3,62.0,30.10,West,281,1.0,3.0,86,0.00,,,0.00,weatherlink.com 1.10,2013-06-14 03:06:00,
2013-06-14 05:21:00,66.4,63.0,30.10,SW,217,1.0,2.0,87,0.00,,,0.00,weatherlink.com 1.10,2013-06-14 03:21:00,
2013-06-14 05:36:00,64.8,61.0,30.10,South,184,0.0,3.0,86,0.00,,,0.00,weatherlink.com 1.10,2013-06-14 03:36:00,
2013-06-14 05:51:00,64.7,61.0,30.10,SSE,157,0.0,0.0,86,0.00,,,0.00,weatherlink.com 1.10,2013-06-14 03:51:00,
2013-06-14 06:06:00,63.4,59.0,30.10,East,101,0.0,0.0,85,0.00,,,0.00,weatherlink.com 1.10,2013-06-14 04:06:00,
2013-06-14 06:21:00,63.7,59.0,30.10,East,99,0.0,0.0,85,0.00,,,0.00,weatherlink.com 1.10,2013-06-14 04:21:00,
2013-06-14 06:36:00,63.5,59.0,30.10,East,88,0.0,0.0,85,0.00,,,0.00,weatherlink.com 1.10,2013-06-14 04:36:00,
2013-06-14 06:51:00,65.6,61.0,30.10,East,96,0.0,0.0,84,0.00,,,0.00,weatherlink.com 1.10,2013-06-14 04:51:00,
2013-06-14 07:06:00,66.6,61.0,30.10,East,97,0.0,0.0,82,0.00,,,0.00,weatherlink.com 1.10,2013-06-14 05:06:00,
2013-06-14 07:21:00,66.6,60.0,30.10,ENE,62,0.0,0.0,78,0.00,,,0.00,weatherlink.com 1.10,2013-06-14 05:21:00,
2013-06-14 07:36:00,68.3,61.0,30.10,NNE,29,0.0,0.0,77,0.00,,,0.00,weatherlink.com 1.10,2013-06-14 05:36:00,
2013-06-14 07:51:00,69.7,62.0,30.09,SSW,211,0.0,4.0,77,0.00,,,0.00,weatherlink.com 1.10,2013-06-14 05:51:00,
2013-06-14 08:06:00,70.4,63.0,30.09,WSW,245,2.0,6.0,77,0.00,,,0.00,weatherlink.com 1.10,2013-06-14 06:06:00,
2013-06-14 08:21:00,71.7,63.0,30.09,West,262,5.0,6.0,73,0.00,,,0.00,weatherlink.com 1.10,2013-06-14 06:21:00,
2013-06-14 08:36:00,71.9,63.0,30.09,West,277,7.0,8.0,73,0.00,,,0.00,weatherlink.com 1.10,2013-06-14 06:36:00,
2013-06-14 08:51:00,72.3,63.0,30.09,West,263,3.0,7.0,72,0.00,,,0.00,weatherlink.com 1.10,2013-06-14 06:51:00,
2013-06-14 09:21:00,73.2,63.0,30.09,WNW,286,4.0,10.0,70,0.00,,,0.00,weatherlink.com 1.10,2013-06-14 07:21:00,
2013-06-14 09:37:00,74.3,63.0,30.09,WNW,297,3.0,8.0,69,0.00,,,0.00,weatherlink.com 1.10,2013-06-14 07:37:00,
2013-06-14 09:52:00,74.4,63.0,30.09,WNW,293,8.0,9.0,68,0.00,,,0.00,weatherlink.com 1.10,2013-06-14 07:52:00,
2013-06-14 10:07:00,74.4,61.0,30.09,West,280,7.0,9.0,63,0.00,,,0.00,weatherlink.com 1.10,2013-06-14 08:07:00,
2013-06-14 10:22:00,74.8,61.0,30.08,WNW,289,6.0,10.0,62,0.00,,,0.00,weatherlink.com 1.10,2013-06-14 08:22:00,
2013-06-14 10:52:00,75.6,60.0,30.09,West,278,3.0,10.0,59,0.00,,,0.00,weatherlink.com 1.10,2013-06-14 08:52:00,
2013-06-14 11:07:00,76.2,59.0,30.08,WNW,285,4.0,10.0,55,0.00,,,0.00,weatherlink.com 1.10,2013-06-14 09:07:00,
2013-06-14 11:22:00,77.3,58.0,30.08,WNW,294,10.0,10.0,52,0.00,,,0.00,weatherlink.com 1.10,2013-06-14 09:22:00,
2013-06-14 11:52:00,79.2,57.0,30.08,West,271,5.0,9.0,47,0.00,,,0.00,weatherlink.com 1.10,2013-06-14 09:52:00,
2013-06-14 12:07:00,79.7,58.0,30.08,West,280,7.0,10.0,47,0.00,,,0.00,weatherlink.com 1.10,2013-06-14 10:07:00,
2013-06-14 12:22:00,80.6,57.0,30.08,West,264,2.0,9.0,44,0.00,,,0.00,weatherlink.com 1.10,2013-06-14 10:22:00,
2013-06-14 12:37:00,81.2,57.0,30.08,West,264,8.0,10.0,43,0.00,,,0.00,weatherlink.com 1.10,2013-06-14 10:37:00,
2013-06-14 12:52:00,81.7,55.0,30.08,West,266,3.0,10.0,40,0.00,,,0.00,weatherlink.com 1.10,2013-06-14 10:52:00,
2013-06-14 13:07:00,83.1,55.0,30.08,WSW,247,7.0,9.0,38,0.00,,,0.00,weatherlink.com 1.10,2013-06-14 11:07:00,
2013-06-14 13:22:00,83.2,54.0,30.08,NW,314,4.0,10.0,37,0.00,,,0.00,weatherlink.com 1.10,2013-06-14 11:22:00,
2013-06-14 13:37:00,83.7,55.0,30.07,NW,312,6.0,10.0,38,0.00,,,0.00,weatherlink.com 1.10,2013-06-14 11:37:00,
2013-06-14 13:52:00,84.4,55.0,30.07,NNW,342,4.0,12.0,36,0.00,,,0.00,weatherlink.com 1.10,2013-06-14 11:52:00,
2013-06-14 14:07:00,84.2,56.0,30.06,WNW,286,11.0,13.0,38,0.00,,,0.00,weatherlink.com 1.10,2013-06-14 12:07:00,
2013-06-14 14:22:00,84.4,56.0,30.06,NW,309,8.0,15.0,38,0.00,,,0.00,weatherlink.com 1.10,2013-06-14 12:22:00,
2013-06-14 14:37:00,84.5,56.0,30.06,West,264,6.0,14.0,38,0.00,,,0.00,weatherlink.com 1.10,2013-06-14 12:37:00,
2013-06-14 14:52:00,84.8,56.0,30.06,NNW,330,4.0,14.0,37,0.00,,,0.00,weatherlink.com 1.10,2013-06-14 12:52:00,
2013-06-14 15:07:00,84.6,56.0,30.06,NNW,333,7.0,12.0,38,0.00,,,0.00,weatherlink.com 1.10,2013-06-14 13:07:00,
2013-06-14 15:22:00,84.4,56.0,30.06,WNW,286,9.0,12.0,38,0.00,,,0.00,weatherlink.com 1.10,2013-06-14 13:22:00,
2013-06-14 15:37:00,84.2,56.0,30.06,NW,323,7.0,14.0,38,0.00,,,0.00,weatherlink.com 1.10,2013-06-14 13:37:00,
2013-06-14 15:52:00,84.9,57.0,30.05,WNW,300,3.0,14.0,38,0.00,,,0.00,weatherlink.com 1.10,2013-06-14 13:52:00,
2013-06-14 16:07:00,85.4,56.0,30.05,NW,316,3.0,11.0,37,0.00,,,0.00,weatherlink.com 1.10,2013-06-14 14:07:00,
2013-06-14 16:22:00,86.3,57.0,30.05,NNW,335,11.0,12.0,37,0.00,,,0.00,weatherlink.com 1.10,2013-06-14 14:22:00,
2013-06-14 16:37:00,85.9,58.0,30.04,NNW,348,7.0,12.0,39,0.00,,,0.00,weatherlink.com 1.10,2013-06-14 14:37:00,
2013-06-14 16:52:00,85.5,59.0,30.04,NNW,344,5.0,14.0,41,0.00,,,0.00,weatherlink.com 1.10,2013-06-14 14:52:00,
2013-06-14 17:07:00,84.5,60.0,30.04,North,352,7.0,12.0,43,0.00,,,0.00,weatherlink.com 1.10,2013-06-14 15:07:00,
2013-06-14 17:22:00,83.9,59.0,30.04,NNW,328,9.0,13.0,43,0.00,,,0.00,weatherlink.com 1.10,2013-06-14 15:22:00,
2013-06-14 17:37:00,84.5,59.0,30.04,NNW,340,8.0,12.0,42,0.00,,,0.00,weatherlink.com 1.10,2013-06-14 15:37:00,
2013-06-14 17:53:00,85.7,58.0,30.04,WNW,297,3.0,10.0,39,0.00,,,0.00,weatherlink.com 1.10,2013-06-14 15:53:00,
2013-06-14 18:08:00,85.0,58.0,30.03,North,360,4.0,9.0,40,0.00,,,0.00,weatherlink.com 1.10,2013-06-14 16:08:00,
2013-06-14 18:23:00,83.6,61.0,30.03,West,281,5.0,12.0,47,0.00,,,0.00,weatherlink.com 1.10,2013-06-14 16:23:00,
2013-06-14 18:38:00,82.3,62.0,30.03,WNW,288,12.0,13.0,51,0.00,,,0.00,weatherlink.com 1.10,2013-06-14 16:38:00,
2013-06-14 18:53:00,80.7,62.0,30.03,WNW,293,7.0,14.0,53,0.00,,,0.00,weatherlink.com 1.10,2013-06-14 16:53:00,
2013-06-14 19:08:00,79.8,62.0,30.03,West,273,10.0,13.0,55,0.00,,,0.00,weatherlink.com 1.10,2013-06-14 17:08:00,
2013-06-14 19:23:00,78.5,62.0,30.03,WNW,285,11.0,14.0,57,0.00,,,0.00,weatherlink.com 1.10,2013-06-14 17:23:00,
2013-06-14 19:38:00,78.2,63.0,30.03,West,278,7.0,11.0,59,0.00,,,0.00,weatherlink.com 1.10,2013-06-14 17:38:00,
2013-06-14 19:53:00,77.3,62.0,30.03,West,270,6.0,11.0,59,0.00,,,0.00,weatherlink.com 1.10,2013-06-14 17:53:00,
2013-06-14 20:08:00,76.9,63.0,30.04,West,276,5.0,9.0,62,0.00,,,0.00,weatherlink.com 1.10,2013-06-14 18:08:00,
2013-06-14 20:23:00,76.3,62.0,30.03,WNW,284,6.0,9.0,61,0.00,,,0.00,weatherlink.com 1.10,2013-06-14 18:23:00,
2013-06-14 20:38:00,75.5,62.0,30.04,West,271,5.0,9.0,64,0.00,,,0.00,weatherlink.com 1.10,2013-06-14 18:38:00,
2013-06-14 20:53:00,74.8,62.0,30.04,WNW,287,3.0,6.0,65,0.00,,,0.00,weatherlink.com 1.10,2013-06-14 18:53:00,
2013-06-14 21:08:00,73.9,63.0,30.04,West,278,4.0,6.0,68,0.00,,,0.00,weatherlink.com 1.10,2013-06-14 19:08:00,
2013-06-14 21:23:00,73.1,63.0,30.04,West,276,3.0,6.0,70,0.00,,,0.00,weatherlink.com 1.10,2013-06-14 19:23:00,
2013-06-14 21:38:00,72.7,62.0,30.04,WNW,293,4.0,5.0,69,0.00,,,0.00,weatherlink.com 1.10,2013-06-14 19:38:00,
2013-06-14 21:53:00,72.4,62.0,30.05,WNW,293,2.0,4.0,69,0.00,,,0.00,weatherlink.com 1.10,2013-06-14 19:53:00,
2013-06-14 22:08:00,72.1,62.0,30.05,WSW,253,2.0,5.0,71,0.00,,,0.00,weatherlink.com 1.10,2013-06-14 20:08:00,
2013-06-14 22:23:00,71.6,64.0,30.06,WNW,283,1.0,4.0,76,0.00,,,0.00,weatherlink.com 1.10,2013-06-14 20:23:00,
2013-06-14 22:38:00,71.1,63.0,30.06,West,277,3.0,4.0,76,0.00,,,0.00,weatherlink.com 1.10,2013-06-14 20:38:00,
2013-06-14 22:53:00,70.9,64.0,30.06,West,281,1.0,4.0,78,0.00,,,0.00,weatherlink.com 1.10,2013-06-14 20:53:00,
2013-06-14 23:08:00,70.7,64.0,30.07,WSW,253,1.0,2.0,79,0.00,,,0.00,weatherlink.com 1.10,2013-06-14 21:08:00,
2013-06-14 23:23:00,69.6,64.0,30.06,WSW,238,2.0,3.0,83,0.00,,,0.00,weatherlink.com 1.10,2013-06-14 21:23:00,
2013-06-14 23:38:00,69.2,65.0,30.07,WSW,238,2.0,2.0,85,0.00,,,0.00,weatherlink.com 1.10,2013-06-14 21:38:00,
2013-06-14 23:53:00,69.5,65.0,30.06,West,281,1.0,2.0,85,0.00,,,0.00,weatherlink.com 1.10,2013-06-14 21:53:00,